{"data":{"norad_id":69009,"intl_designator":"2026-100AF","name":"CAS500-2 RIDESHARE OBJE*","alt_names":[],"object_type":"PAYLOAD","status":"ACTIVE","operator":null,"country":"TBD","launch_date":"2026-05-03","launch_site_code":"AFWTR","launch_vehicle":null,"mission":null,"orbit_class":"UNKNOWN","rcs_meters":null,"size_class":null,"mass_kg":null,"dimensions":null,"purposes":[],"wikipedia_slug":null,"has_3d_model":false,"image_url":null,"decayed_at":null,"tle_current":{"epoch":"2026-09-19T23:14:20.630112Z","epoch_age_seconds":64937,"freshness":"FRESH","line1":"1 69009U 26100AF  26262.96829433  .00007198  00000+0  31884-3 0  9996","line2":"2 69009  97.3900 159.0702 0005418  31.9557 328.2007 15.21922001 21217","mean_motion":15.21922001,"eccentricity":0.0005418,"inclination_deg":97.39,"raan_deg":159.0702,"arg_perigee_deg":31.9557,"mean_anomaly_deg":328.2007,"bstar":0.00031884,"rev_number":2121,"period_min":94.617201082173,"perigee_km":496.31704809325,"apogee_km":503.77024464166,"semimajor_km":6878.1806463675,"source":"CELESTRAK","updated_at":"2026-09-20T09:00:24.628241Z"}}}